Flag for Austria Weather for the Past 2 Weeks in Bruck an der Leitha, Lower Austria, Austria

Now
55 °F

Sunny.


Feels Like: 50 °F
Forecast: 38 / 52 °F
Wind: 23 mph from Southeast

Location: Vienna Schwechat-Flughafen Airport

Current Time: Feb 9, 2016 at 3:29:59 PM

Latest Report: Feb 9, 2016 at 2:50 PM


Visibility: 10 mi

Pressure: 29.59 "Hg

Humidity: 59%

Dew point: 41 °F

Location of Bruck an der LeithaLocation

Historic Weather in Bruck an der Leitha — Graph

°F

Bruck an der Leitha Temperature Yesterday

Maximum temperature yesterday: 54 °F (at 3:20 PM)
Minimum temperature yesterday: 45 °F (at 6:50 AM)
Average temperature yesterday: 49 °F

High & Low Weather Summary for the Past Weeks

 TemperatureHumidityPressure
High63 °F (Jan 28, 12:20 PM)100% (Jan 25, 1:20 PM)30.42 "Hg (Jan 25, 1:20 PM)
Low30 °F (Jan 27, 1:50 AM)37% (Jan 28, 12:50 PM)29.65 "Hg (Feb 9, 1:50 PM)
Average43 °F80%30.11 "Hg
* Reported Jan 25 1:20 PM — Feb 9 1:50 PM, Bruck an der Leitha, Weather by CustomWeather, © 2016

Note: Actual official high and low records may vary slightly from our data, if they occured in-between our weather recording intervals... More about our weather records

Advertising

Bruck an der Leitha Weather History for the Previous 24 Hours

 ConditionsComfort  
Time TempWeatherWind HumidityBarometerVisibility
1:50 PM
Tue, Feb 9
50 °FSunny.20 mph76%29.65 "Hg10 mi
1:20 PM50 °FSunny.17 mph76%29.68 "Hg10 mi
12:50 PM50 °FSunny.16 mph76%29.71 "Hg10 mi
12:20 PM50 °FSunny.17 mph76%29.74 "Hg10 mi
11:20 AM52 °FPassing clouds.9 mph67%29.80 "HgN/A
10:50 AM52 °FSunny.14 mph67%29.83 "Hg10 mi
10:20 AM52 °FSunny.10 mph67%29.80 "Hg10 mi
9:50 AM50 °FSunny.10 mph71%29.83 "Hg10 mi
8:50 AM48 °FSunny.10 mph76%29.83 "Hg10 mi
8:20 AM46 °FPartly sunny.10 mph82%29.86 "HgN/A
7:50 AM45 °FPartly sunny.13 mph81%29.86 "HgN/A
7:20 AM45 °FPartly sunny.13 mph81%29.86 "HgN/A
6:50 AM45 °FPassing clouds.13 mph81%29.86 "HgN/A
6:20 AM43 °FPassing clouds.6 mph93%29.83 "HgN/A
5:50 AM46 °FSprinkles. Passing clouds.7 mph82%29.83 "HgN/A
5:20 AM46 °FSprinkles. Passing clouds.8 mph82%29.86 "HgN/A
4:50 AM46 °FSprinkles. Passing clouds.6 mph82%29.86 "HgN/A
4:20 AM45 °FSprinkles. Passing clouds.3 mph81%29.86 "HgN/A
3:50 AM45 °FSprinkles. Passing clouds.7 mph81%29.86 "HgN/A
3:20 AM41 °FPassing clouds.8 mph87%29.83 "HgN/A
2:20 AM46 °FPassing clouds.8 mph76%29.80 "HgN/A
1:50 AM46 °FClear.3 mph76%29.80 "Hg10 mi
1:20 AM46 °FPassing clouds.6 mph76%29.83 "HgN/A
12:50 AM48 °FClear.12 mph71%29.80 "Hg10 mi
12:20 AM46 °FPassing clouds.8 mph76%29.80 "HgN/A
11:50 PM
Mon, Feb 8
45 °FClear.7 mph81%29.77 "Hg10 mi
11:20 PM46 °FClear.7 mph82%29.74 "Hg10 mi
10:50 PM48 °FPassing clouds.3 mph71%29.74 "HgN/A
10:20 PM46 °FClear.10 mph82%29.71 "Hg10 mi
9:50 PM50 °FClear.10 mph71%29.71 "Hg10 mi
9:20 PM52 °FClear.16 mph72%29.68 "Hg10 mi
8:50 PM52 °FClear.17 mph72%29.68 "Hg10 mi
8:20 PM52 °FClear.18 mph72%29.68 "Hg10 mi
7:50 PM52 °FClear.18 mph72%29.68 "Hg10 mi
7:20 PM52 °FClear.15 mph72%29.68 "Hg10 mi
6:50 PM52 °FClear.18 mph72%29.68 "Hg10 mi
6:20 PM52 °FClear.20 mph72%29.71 "Hg10 mi
5:50 PM54 °FClear.18 mph63%29.71 "Hg10 mi
5:20 PM54 °FClear.20 mph63%29.74 "Hg10 mi
4:50 PM54 °FSunny.17 mph63%29.74 "Hg10 mi
4:20 PM54 °FSunny.18 mph63%29.74 "Hg10 mi
3:50 PM54 °FSunny.20 mph63%29.74 "Hg10 mi
3:20 PM54 °FSunny.15 mph63%29.74 "Hg10 mi
Weather by CustomWeather, © 2016

See weather overviewHow to use our weather pages